This is the latest recevied weather packets stored in our database for station/object KAGO. If no packets are shown the sender has not sent any weather packets the latest 10 day(s).
| Time | Temp. | Humidity | Pressure | Rain* | Wind** | Luminosity | Snow |
|---|---|---|---|---|---|---|---|
| 1777585412 | 16.67° C | 77% | 1013.2 hPa | - | - | - | - |
| 1777584808 | 16.67° C | 77% | 1013.9 hPa | - | - | - | - |
| 1777584205 | 16.67° C | 77% | 1013.9 hPa | - | - | - | - |
| 1777583607 | 17.78° C | 67% | 1013.9 hPa | - | - | - | - |
| 1777583009 | 17.78° C | 67% | 1013.9 hPa | - | - | - | - |
| 1777582410 | 17.78° C | 67% | 1013.5 hPa | - | - | - | - |
| 1777581806 | 17.78° C | 67% | 1013.5 hPa | - | - | - | - |
| 1777581207 | 17.78° C | 67% | 1013.9 hPa | - | - | - | - |
| 1777580608 | 17.78° C | 67% | 1013.9 hPa | - | - | - | - |
| 1777580005 | 17.78° C | 72% | 1014.6 hPa | - | - | - | - |
| 1777579406 | 17.78° C | 72% | 1014.6 hPa | - | - | - | - |
| 1777578808 | 17.78° C | 67% | 1015.2 hPa | - | - | - | - |
| 1777578208 | 17.78° C | 67% | 1015.2 hPa | - | - | - | - |
| 1777577611 | 17.78° C | 67% | 1015.2 hPa | - | - | - | - |
| 1777577005 | 17.78° C | 67% | 1015.2 hPa | - | - | - | - |
| 1777576407 | 17.78° C | 67% | 1014.6 hPa | - | - | - | - |
| 1777575807 | 17.78° C | 67% | 1014.6 hPa | - | - | - | - |
| 1777575208 | 17.78° C | 67% | 1014.6 hPa | - | - | - | - |
| 1777574603 | 17.78° C | 67% | 1014.6 hPa | - | - | - | - |
| 1777574008 | 17.78° C | 67% | 1014.6 hPa | - | - | - | - |
| 1777573405 | 17.78° C | 67% | 1014.6 hPa | - | - | - | - |
| 1777572806 | 17.78° C | 63% | 1014.6 hPa | - | - | - | - |
| 1777572206 | 17.78° C | 63% | 1014.6 hPa | - | - | - | - |
| 1777571609 | 17.78° C | 67% | 1014.9 hPa | - | - | - | - |
| 1777571009 | 17.78° C | 67% | 1014.9 hPa | - | - | - | - |
* Rain since midnight (hover to see other rain measurements)
** Current wind speed in m/s (hover to see current wind gust speed)